Location: B�rgermoos
(47.6500°N, 9.0667°E)
Time: 17:36:05
(UTC+00:00)

Tiros 1 - Pass Details

Date: 11 August 2021
Orbit: 630 x 663 km, 48.4° (Epoch: 20 September)

Event Time Altitude Azimuth Distance (km) Brightness Sun altitude
Rises 12:11:55 0° 189° (S) 2,979 11.1 56.3°
Reaches altitude 10° 12:15:24 10° 163° (SSE) 2,073 10.3 56.1°
Maximum altitude 12:17:41 13° 135° (SE) 1,856 9.9 55.9°
Drops below altitude 10° 12:19:58 10° 106° (ESE) 2,079 9.8 55.8°
Sets 12:23:27 0° 80° (E) 2,993 10.4 55.6°
